W5IM Weather Reports


Display with metric or nautical units.
time (UTC)temp
F
wind
direction
speed
MPH
gust
MPH
rain 1hr
in
rain 24hr
in
rain mn
in
humidity
%
barometer
mb
20260508193515 81 95 3.0 8.0 0.00 0.00 0.00 71 1008.0
20260508193015 81 31 3.0 8.0 0.00 0.00 0.00 71 1007.9
20260508192515 81 42 6.0 9.0 0.00 0.00 0.00 70 1008.2
20260508192016 81 346 5.0 7.0 0.00 0.00 0.00 71 1008.3
20260508191516 81 85 4.0 8.0 0.00 0.00 0.00 71 1008.4
20260508191015 81 35 4.0 8.0 0.00 0.00 0.00 71 1008.4
20260508190015 80 57 2.0 6.0 0.00 0.00 0.00 72 1008.5
20260508185515 80 94 5.0 8.0 0.00 0.00 0.00 72 1008.7
20260508185016 80 37 2.0 8.0 0.00 0.00 0.00 71 1008.6
20260508184515 80 57 5.0 7.0 0.00 0.00 0.00 72 1008.6
20260508184015 80 25 3.0 8.0 0.00 0.00 0.00 73 1008.7
20260508183016 80 40 4.0 6.0 0.00 0.00 0.00 73 1008.8
20260508182515 80 105 5.0 8.0 0.00 0.00 0.00 75 1009.0
20260508181514 80 49 3.0 7.0 0.00 0.00 0.00 73 1009.3
20260508181015 80 72 3.0 6.0 0.00 0.00 0.00 74 1009.2
20260508180515 80 102 2.0 5.0 0.00 0.00 0.00 74 1009.3
20260508180015 79 92 3.0 7.0 0.00 0.00 0.00 74 1009.3
20260508175516 79 131 3.0 6.0 0.00 0.00 0.00 75 1009.4
20260508175015 79 52 4.0 6.0 0.00 0.00 0.00 74 1009.6
20260508174015 79 65 2.0 5.0 0.00 0.00 0.00 74 1009.7
20260508173516 78 48 1.0 3.0 0.00 0.00 0.00 74 1009.8
20260508172518 78 338 1.0 3.0 0.00 0.00 0.00 74 1009.9
20260508172016 77 356 2.0 3.0 0.00 0.00 0.00 74 1010.0
20260508171515 77 314 2.0 3.0 0.00 0.00 0.00 76 1010.1
20260508171015 77 70 3.0 5.0 0.00 0.00 0.00 75 1010.0
20260508170015 76 339 3.0 6.0 0.00 0.00 0.00 76 1010.1
20260508165516 76 15 4.0 7.0 0.00 0.00 0.00 76 1010.3
20260508164514 75 7 5.0 7.0 0.00 0.00 0.00 77 1010.4
20260508164015 75 3 5.0 8.0 0.00 0.00 0.00 76 1010.4
20260508163015 75 357 5.0 7.0 0.00 0.00 0.00 77 1010.6
20260508162515 75 340 5.0 8.0 0.00 0.00 0.00 78 1010.6
20260508162015 74 355 6.0 8.0 0.00 0.00 0.00 78 1010.6
20260508161514 74 1 6.0 7.0 0.00 0.00 0.00 77 1010.6
20260508161015 74 347 6.0 8.0 0.00 0.00 0.00 78 1010.7
20260508160515 74 355 6.0 8.0 0.00 0.00 0.00 77 1010.9
20260508160015 74 358 6.0 8.0 0.00 0.00 0.00 77 1010.9
20260508155514 74 350 6.0 9.0 0.00 0.00 0.00 77 1011.1
20260508155015 75 5 6.0 9.0 0.00 0.00 0.00 77 1010.8
20260508153516 75 335 7.0 9.0 0.00 0.00 0.00 79 1011.1
20260508153015 76 347 5.0 8.0 0.00 0.00 0.00 79 1011.0
20260508152515 76 27 4.0 6.0 0.00 0.00 0.00 79 1011.2
20260508152015 76 32 5.0 8.0 0.00 0.00 0.00 79 1011.1
20260508151515 76 21 2.0 8.0 0.00 0.00 0.00 78 1011.3
20260508151016 76 35 3.0 5.0 0.00 0.00 0.00 78 1011.4
20260508150515 76 40 3.0 6.0 0.00 0.00 0.00 79 1011.3
20260508150014 75 91 5.0 6.0 0.00 0.00 0.00 79 1011.3
20260508145515 75 50 3.0 6.0 0.00 0.00 0.00 79 1011.3
20260508145015 75 35 3.0 5.0 0.00 0.00 0.00 79 1011.4
20260508144515 75 117 3.0 6.0 0.00 0.00 0.00 79 1011.5
20260508144016 75 96 5.0 6.0 0.00 0.00 0.00 80 1011.6
20260508143516 75 106 4.0 6.0 0.00 0.00 0.00 80 1011.7
20260508142514 74 36 2.0 6.0 0.00 0.00 0.00 80 1011.5
20260508142015 75 23 3.0 5.0 0.00 0.00 0.00 80 1011.5
20260508141515 74 21 4.0 6.0 0.00 0.00 0.00 80 1011.5
20260508141015 74 7 4.0 6.0 0.00 0.00 0.00 81 1011.5
20260508140515 74 132 2.0 3.0 0.00 0.00 0.00 81 1011.4
20260508140014 73 112 4.0 6.0 0.00 0.00 0.00 81 1011.3
20260508134515 73 115 6.0 9.0 0.00 0.00 0.00 82 1011.1
20260508133515 72 116 6.0 9.0 0.00 0.00 0.00 82 1011.4
20260508133017 72 105 6.0 13.0 0.00 0.00 0.00 82 1011.3
20260508132514 71 135 7.0 10.0 0.00 0.00 0.00 82 1011.5
20260508131515 71 121 9.0 13.0 0.00 0.00 0.00 81 1011.4
20260508131015 71 117 9.0 13.0 0.00 0.00 0.00 82 1011.1
20260508130014 70 87 7.0 9.0 0.00 0.00 0.00 83 1011.0
20260508125016 69 117 6.0 8.0 0.00 0.00 0.00 82 1011.9
20260508124514 69 134 6.0 8.0 0.00 0.00 0.00 82 1012.0
20260508124015 69 118 5.0 7.0 0.00 0.00 0.00 82 1011.9
20260508123516 69 102 5.0 8.0 0.00 0.00 0.00 82 1011.8
20260508123016 69 59 7.0 10.0 0.00 0.00 0.00 82 1011.5
20260508122514 69 35 7.0 10.0 0.00 0.00 0.00 82 1011.4
20260508122018 69 34 6.0 8.0 0.00 0.00 0.00 83 1011.5
20260508121514 69 45 6.0 9.0 0.00 0.00 0.00 82 1011.3
20260508121016 69 51 6.0 8.0 0.00 0.00 0.00 82 1011.3
20260508120016 69 37 6.0 9.0 0.00 0.00 0.00 81 1011.5
20260508115514 69 60 5.0 7.0 0.00 0.00 0.00 81 1011.8
20260508115017 69 1 5.0 7.0 0.00 0.00 0.00 81 1011.9
20260508114514 69 4 5.0 8.0 0.00 0.00 0.00 81 1011.8
20260508114015 69 359 6.0 9.0 0.00 0.00 0.00 81 1011.9
20260508113515 69 357 10.0 14.0 0.00 0.00 0.00 81 1011.9
20260508113015 69 357 9.0 14.0 0.00 0.00 0.00 81 1011.8
20260508112514 69 1 9.0 14.0 0.00 0.00 0.00 81 1011.9
20260508112017 69 1 8.0 13.0 0.00 0.00 0.00 81 1011.9
20260508110515 69 3 12.0 16.0 0.00 0.00 0.00 82 1011.8
20260508110014 69 352 12.0 16.0 0.00 0.00 0.00 82 1011.7
20260508105515 69 0 9.0 14.0 0.00 0.00 0.00 83 1011.7
20260508105016 69 350 10.0 13.0 0.00 0.00 0.00 83 1011.7
20260508104516 69 354 8.0 12.0 0.00 0.00 0.00 83 1011.7
20260508103515 69 349 9.0 12.0 0.00 0.00 0.00 86 1011.5
20260508103015 69 347 7.0 9.0 0.00 0.00 0.00 87 1011.4
20260508102515 69 349 6.0 9.0 0.00 0.00 0.00 88 1011.3
20260508102016 69 2 5.0 8.0 0.00 0.00 0.00 89 1011.0
20260508101515 68 0 6.0 8.0 0.00 0.00 0.00 90 1010.9
20260508101015 68 2 5.0 7.0 0.00 0.00 0.00 91 1010.8
20260508100515 68 11 3.0 6.0 0.00 0.00 0.00 91 1010.7
20260508100015 68 24 5.0 7.0 0.00 0.00 0.00 91 1010.7
20260508095514 68 15 5.0 6.0 0.00 0.00 0.00 91 1010.8
20260508095019 68 22 5.0 6.0 0.00 0.00 0.00 91 1010.6
20260508094515 68 44 5.0 7.0 0.00 0.00 0.00 91 1010.5
20260508093515 69 358 4.0 7.0 0.00 0.00 0.00 91 1011.0
20260508093015 69 24 5.0 7.0 0.00 0.00 0.00 91 1010.8
20260508092515 69 51 4.0 6.0 0.00 0.00 0.00 90 1011.0
20260508092015 69 342 2.0 6.0 0.00 0.00 0.00 90 1011.8
20260508091515 69 7 4.0 6.0 0.00 0.00 0.00 90 1011.3
20260508091015 68 356 3.0 5.0 0.00 0.00 0.00 90 1011.3
20260508090014 68 12 3.0 3.0 0.00 0.00 0.00 91 1011.1
20260508085514 68 30 2.0 3.0 0.00 0.00 0.00 91 1010.9
20260508085016 68 61 2.0 5.0 0.00 0.00 0.00 91 1010.9
20260508084514 68 93 3.0 6.0 0.00 0.00 0.00 92 1010.9
20260508084014 68 75 3.0 5.0 0.00 0.00 0.00 92 1011.1
20260508083515 68 66 2.0 5.0 0.00 0.00 0.00 92 1011.5
20260508083015 68 39 3.0 5.0 0.00 0.00 0.00 92 1011.6
20260508082514 68 21 3.0 3.0 0.00 0.00 0.00 92 1012.1
20260508082015 68 10 3.0 5.0 0.00 0.00 0.00 91 1012.2
20260508081515 68 27 3.0 6.0 0.00 0.00 0.00 91 1012.2
20260508080514 68 59 3.0 7.0 0.00 0.00 0.00 90 1012.1
20260508080015 68 50 5.0 7.0 0.00 0.00 0.00 90 1012.0
20260508075514 68 17 5.0 7.0 0.00 0.00 0.00 90 1012.3
20260508074515 68 7 5.0 8.0 0.00 0.00 0.00 90 1012.5
20260508074015 69 2 3.0 7.0 0.00 0.00 0.00 90 1012.6
20260508073514 69 6 3.0 8.0 0.00 0.00 0.00 90 1012.7
20260508073015 69 349 5.0 7.0 0.00 0.00 0.00 91 1012.8
20260508072514 69 358 5.0 7.0 0.00 0.00 0.00 90 1012.8
20260508072017 70 4 6.0 7.0 0.00 0.00 0.00 90 1012.8
20260508071515 71 0 5.0 7.0 0.00 0.00 0.00 90 1012.7
20260508071015 71 22 4.0 7.0 0.00 0.00 0.00 89 1012.5
20260508070514 71 30 4.0 7.0 0.00 0.00 0.00 88 1012.6
20260508070014 71 31 5.0 7.0 0.00 0.00 0.00 88 1012.7
20260508065514 72 24 5.0 7.0 0.00 0.00 0.00 87 1012.7
20260508065014 72 22 5.0 7.0 0.00 0.00 0.00 86 1012.9
20260508064515 72 18 5.0 7.0 0.00 0.00 0.00 86 1012.8
20260508064015 72 23 4.0 6.0 0.00 0.00 0.00 86 1013.0
20260508063516 72 10 5.0 6.0 0.00 0.00 0.00 86 1013.0
20260508062515 72 28 5.0 8.0 0.00 0.00 0.00 86 1012.7
20260508062015 71 29 6.0 9.0 0.00 0.00 0.00 86 1012.5
20260508061515 71 17 5.0 8.0 0.00 0.00 0.00 86 1012.6
20260508061015 72 3 5.0 7.0 0.00 0.00 0.00 86 1012.7
20260508060516 72 10 5.0 7.0 0.00 0.00 0.00 85 1012.5
20260508060015 72 20 3.0 6.0 0.00 0.00 0.00 85 1012.5
20260508055514 72 12 5.0 6.0 0.00 0.00 0.00 85 1012.5
20260508055015 72 22 3.0 5.0 0.00 0.00 0.00 84 1012.6
20260508054015 72 5 3.0 5.0 0.00 0.00 0.00 84 1012.8
20260508053514 72 4 3.0 5.0 0.00 0.00 0.00 84 1012.8
20260508053015 72 10 5.0 7.0 0.00 0.00 0.00 84 1012.8
20260508052515 72 13 4.0 6.0 0.00 0.00 0.00 84 1012.9
20260508052015 72 17 4.0 5.0 0.00 0.00 0.00 84 1013.1
20260508051519 72 12 3.0 3.0 0.00 0.00 0.00 84 1013.1
20260508051015 72 20 1.0 2.0 0.00 0.00 0.00 84 1013.2
20260508050515 72 25 1.0 2.0 0.00 0.00 0.00 84 1013.4
20260508045015 72 236 2.0 2.0 0.00 0.00 0.00 83 1013.6
20260508044014 72 221 1.0 2.0 0.00 0.00 0.00 83 1013.5
20260508043517 72 182 0.0 2.0 0.00 0.00 0.00 83 1013.2
20260508043014 72 152 2.0 3.0 0.00 0.00 0.00 83 1013.0
20260508042514 72 145 3.0 5.0 0.00 0.00 0.00 82 1012.9
20260508042015 72 87 2.0 3.0 0.00 0.00 0.00 82 1012.5
20260508041515 72 63 5.0 7.0 0.00 0.00 0.00 82 1012.3
20260508040514 72 89 6.0 8.0 0.00 0.00 0.00 82 1012.2
20260508040014 72 57 5.0 7.0 0.00 0.00 0.00 83 1012.0
20260508035514 72 75 5.0 8.0 0.00 0.00 0.00 83 1012.1
20260508035015 72 109 3.0 8.0 0.00 0.00 0.00 83 1012.1
20260508034513 72 114 5.0 9.0 0.00 0.00 0.00 83 1012.2
20260508033514 72 134 6.0 7.0 0.00 0.00 0.00 83 1012.4
20260508033014 72 116 5.0 7.0 0.00 0.00 0.00 83 1012.4
20260508032514 72 105 3.0 6.0 0.00 0.00 0.00 83 1012.5
20260508032015 72 114 5.0 8.0 0.00 0.00 0.00 83 1012.4
20260508031517 72 151 6.0 9.0 0.00 0.00 0.00 83 1012.5
20260508031015 72 144 2.0 6.0 0.00 0.00 0.00 84 1012.4
20260508030517 72 145 8.0 13.0 0.00 0.00 0.00 84 1011.9
20260508030014 72 146 9.0 15.0 0.00 0.00 0.00 84 1011.6
20260508025516 72 104 9.0 14.0 0.00 0.00 0.00 84 1011.0
20260508025015 72 110 7.0 10.0 0.00 0.00 0.00 84 1011.7
20260508024514 71 125 9.0 14.0 0.00 0.00 0.00 84 1011.6
20260508024015 71 117 13.0 18.0 0.00 0.00 0.00 85 1010.8
20260508023515 71 120 11.0 21.0 0.00 0.00 0.00 85 1011.0
20260508023014 71 92 12.0 18.0 0.00 0.00 0.00 85 1010.7
20260508022515 72 105 12.0 17.0 0.00 0.00 0.00 84 1011.0
20260508022014 72 106 10.0 15.0 0.00 0.00 0.00 82 1011.9
20260508021514 72 96 7.0 14.0 0.00 0.00 0.00 82 1012.3
20260508021014 73 128 5.0 8.0 0.00 0.00 0.00 81 1013.0
20260508020514 73 119 3.0 7.0 0.00 0.00 0.00 81 1013.0
20260508020014 73 125 4.0 9.0 0.00 0.00 0.00 80 1012.8
20260508015014 73 89 5.0 9.0 0.00 0.00 0.00 80 1012.4
20260508014514 72 68 9.0 13.0 0.00 0.00 0.00 79 1011.8
20260508014015 72 90 6.0 9.0 0.00 0.00 0.00 79 1012.0
20260508013515 72 75 6.0 8.0 0.00 0.00 0.00 79 1012.1
20260508013014 72 102 6.0 10.0 0.00 0.00 0.00 79 1012.3
20260508012515 72 108 3.0 6.0 0.00 0.00 0.00 79 1012.8
20260508012015 72 87 5.0 6.0 0.00 0.00 0.00 78 1012.8
20260508011514 73 56 2.0 3.0 0.00 0.00 0.00 78 1013.1
20260508011015 73 32 3.0 5.0 0.00 0.00 0.00 78 1013.1
20260508010515 73 14 2.0 5.0 0.00 0.00 0.00 78 1013.0
20260508010015 72 20 2.0 2.0 0.00 0.00 0.00 78 1013.0
20260508005514 72 37 0.0 2.0 0.00 0.00 0.00 78 1013.1
20260508005014 73 87 2.0 3.0 0.00 0.00 0.00 78 1012.7
20260508004514 72 50 1.0 3.0 0.00 0.00 0.00 78 1012.7
20260508004014 72 15 4.0 8.0 0.00 0.00 0.00 78 1012.6
20260508003514 72 34 5.0 7.0 0.00 0.00 0.00 78 1012.5
20260508003014 72 26 3.0 5.0 0.00 0.00 0.00 78 1012.6
20260508002515 72 71 5.0 8.0 0.00 0.00 0.00 78 1012.4
20260508002014 72 67 6.0 9.0 0.00 0.00 0.00 78 1012.1
20260508001514 72 67 6.0 8.0 0.00 0.00 0.00 78 1012.1
20260508000515 72 37 9.0 12.0 0.00 0.00 0.00 77 1012.0
20260508000014 72 32 7.0 10.0 0.00 0.00 0.00 77 1012.0
20260507235014 72 49 6.0 8.0 0.00 0.00 0.00 78 1012.1
20260507234514 72 37 9.0 10.0 0.00 0.00 0.00 77 1012.2
20260507234015 72 28 8.0 10.0 0.00 0.00 0.00 77 1012.3
20260507233515 72 33 8.0 13.0 0.00 0.00 0.00 77 1012.3
20260507233014 72 49 8.0 10.0 0.00 0.00 0.00 77 1012.3
20260507232014 72 34 7.0 10.0 0.00 0.00 0.00 77 1012.6
20260507231515 72 19 6.0 8.0 0.00 0.00 0.00 77 1012.7
20260507231015 72 22 7.0 8.0 0.00 0.00 0.00 76 1012.8
20260507230514 72 40 6.0 9.0 0.00 0.00 0.00 76 1012.8
20260507230013 72 25 10.0 13.0 0.00 0.00 0.00 76 1012.7
20260507225514 72 29 7.0 9.0 0.00 0.00 0.00 76 1012.7
20260507225015 73 52 7.0 12.0 0.00 0.00 0.00 75 1012.5
20260507224014 73 51 7.0 12.0 0.00 0.00 0.00 75 1012.3
20260507223016 73 65 7.0 10.0 0.00 0.00 0.00 75 1012.3
20260507222515 72 47 7.0 10.0 0.00 0.00 0.00 75 1012.4
20260507222014 72 42 6.0 10.0 0.00 0.00 0.00 75 1012.4
20260507221014 72 31 7.0 12.0 0.00 0.00 0.00 76 1012.5
20260507220515 72 15 8.0 10.0 0.00 0.00 0.00 76 1012.5
20260507220014 72 31 6.0 9.0 0.00 0.00 0.00 75 1012.4
20260507215514 72 47 5.0 9.0 0.00 0.00 0.00 76 1012.4
20260507213514 72 45 7.0 10.0 0.00 0.00 0.00 75 1012.1
20260507213014 72 54 7.0 12.0 0.00 0.00 0.00 76 1012.1
20260507211514 73 59 7.0 10.0 0.00 0.00 0.00 75 1011.9
20260507211015 72 52 6.0 9.0 0.00 0.00 0.00 74 1012.1
20260507210514 73 43 8.0 12.0 0.00 0.00 0.00 74 1012.1
20260507210013 73 73 8.0 12.0 0.00 0.00 0.00 75 1012.0
20260507205514 73 82 7.0 10.0 0.00 0.00 0.00 75 1012.0
20260507204514 73 41 7.0 12.0 0.00 0.00 0.00 74 1012.3
20260507204014 73 49 7.0 10.0 0.00 0.00 0.00 75 1012.3
20260507203514 72 70 7.0 10.0 0.00 0.00 0.00 76 1012.4
20260507203015 72 59 9.0 13.0 0.00 0.00 0.00 75 1012.5
20260507202514 72 26 8.0 13.0 0.00 0.00 0.00 75 1012.5
20260507202016 73 20 9.0 12.0 0.00 0.00 0.00 75 1012.6
20260507201514 73 17 8.0 13.0 0.00 0.00 0.00 74 1012.7
20260507201014 73 63 6.0 12.0 0.00 0.00 0.00 74 1012.6
20260507200016 73 73 9.0 13.0 0.00 0.00 0.00 75 1012.7
20260507195014 73 67 10.0 14.0 0.00 0.00 0.00 74 1012.8
20260507194514 73 71 9.0 15.0 0.00 0.00 0.00 75 1012.8
20260507194014 73 39 6.0 10.0 0.00 0.00 0.00 75 1012.9